EW2235 Weather Reports


Display with metric or nautical units.
time (UTC)temp
F
wind
direction
speed
MPH
gust
MPH
rain 1hr
in
rain 24hr
in
rain mn
in
humidity
%
barometer
mb
20260901071844 60 127 0.0 5.0 0.00 0.01 0.00 84 1010.4
20260901071351 60 156 1.0 8.0 0.00 0.01 0.00 84 1010.4
20260901070325 60 199 1.0 6.0 0.00 0.01 0.01 83 1010.2
20260901065835 60 185 1.0 5.0 0.00 0.01 0.01 83 1010.2
20260901065313 61 172 0.0 5.0 0.00 0.01 0.01 82 1010.0
20260901064815 61 170 0.0 5.0 0.00 0.01 0.01 82 1010.1
20260901064321 61 150 0.0 7.0 0.00 0.01 0.01 81 1010.1
20260901063823 61 210 1.0 9.0 0.00 0.01 0.01 81 1010.0
20260901063323 62 202 0.0 9.0 0.00 0.01 0.01 80 1009.9
20260901062832 62 158 0.0 6.0 0.00 0.01 0.01 79 1009.8
20260901062312 63 181 0.0 2.0 0.00 0.01 0.01 78 1009.7
20260901061815 63 169 0.0 1.0 0.00 0.01 0.01 77 1009.6
20260901061321 63 158 0.0 2.0 0.00 0.01 0.01 76 1009.6
20260901060824 64 218 0.0 8.0 0.00 0.01 0.01 75 1009.5
20260901060330 64 179 1.0 8.0 0.00 0.01 0.01 73 1009.5
20260901055813 65 198 0.0 2.0 0.00 0.01 0.01 72 1009.5
20260901055312 66 173 0.0 2.0 0.00 0.01 0.01 71 1009.5
20260901054814 66 203 0.0 0.0 0.00 0.01 0.01 70 1009.4
20260901054321 67 202 0.0 0.0 0.00 0.01 0.01 69 1009.2
20260901053830 67 150 0.0 0.0 0.00 0.01 0.01 68 1009.2
20260901053337 68 150 0.0 0.0 0.00 0.01 0.01 67 1009.2
20260901052819 68 193 0.0 0.0 0.00 0.01 0.01 68 1009.3
20260901052318 68 215 0.0 0.0 0.00 0.01 0.01 68 1009.2
20260901051827 68 211 0.0 0.0 0.00 0.01 0.01 67 1009.2
20260901051327 69 307 0.0 0.0 0.00 0.01 0.01 66 1009.2
20260901050829 69 307 0.0 0.0 0.00 0.01 0.01 65 1009.1
20260901050335 70 307 0.0 0.0 0.00 0.01 0.01 64 1009.1
20260901045817 70 307 0.0 0.0 0.00 0.01 0.01 63 1009.0
20260901045316 70 307 0.0 0.0 0.00 0.01 0.01 63 1008.9
20260901044826 70 263 0.0 0.0 0.00 0.01 0.01 63 1008.9
20260901044325 70 158 0.0 0.0 0.00 0.01 0.01 62 1008.9
20260901043835 71 245 0.0 3.0 0.00 0.01 0.01 61 1008.8
20260901043314 71 173 0.0 2.0 0.00 0.01 0.01 60 1008.8
20260901042816 71 172 0.0 0.0 0.00 0.01 0.01 59 1008.6
20260901042316 71 167 0.0 0.0 0.00 0.01 0.01 57 1008.5
20260901041825 72 167 0.0 0.0 0.00 0.01 0.01 56 1008.5
20260901041325 72 167 0.0 0.0 0.00 0.01 0.01 55 1008.5
20260901040835 72 167 0.0 0.0 0.00 0.01 0.01 54 1008.5
20260901040331 73 167 0.0 0.0 0.00 0.01 0.01 53 1008.4
20260901035813 72 200 0.0 0.0 0.00 0.01 0.01 53 1008.4
20260901035319 72 217 0.0 0.0 0.00 0.01 0.01 52 1008.4
20260901034821 72 137 0.0 0.0 0.00 0.01 0.01 53 1008.3
20260901034408 72 137 0.0 0.0 0.00 0.01 0.01 53 1008.2
20260901033832 72 137 0.0 0.0 0.00 0.01 0.01 54 1008.1
20260901033352 72 137 0.0 0.0 0.00 0.01 0.01 53 1008.0
20260901032842 73 137 0.0 0.0 0.00 0.01 0.01 53 1008.0
20260901032348 73 137 0.0 0.0 0.00 0.01 0.01 52 1007.8
20260901031850 73 137 0.0 0.0 0.00 0.01 0.01 52 1007.7
20260901031335 74 137 0.0 0.0 0.00 0.01 0.01 52 1007.6
20260901030845 74 137 0.0 0.0 0.00 0.01 0.01 52 1007.6
20260901030344 74 137 0.0 0.0 0.00 0.01 0.01 51 1007.7
20260901025835 74 137 0.0 0.0 0.00 0.01 0.01 50 1007.7
20260901025313 75 137 0.0 0.0 0.00 0.01 0.01 50 1007.7
20260901024822 75 136 0.0 0.0 0.00 0.01 0.01 50 1007.7
20260901024321 75 136 0.0 0.0 0.00 0.01 0.01 49 1007.7
20260901023316 76 200 0.0 0.0 0.00 0.01 0.01 49 1007.7
20260901022826 76 200 0.0 0.0 0.00 0.01 0.01 49 1007.7
20260901022325 77 200 0.0 1.0 0.00 0.01 0.01 48 1007.8
20260901021816 77 200 0.0 1.0 0.00 0.01 0.01 48 1007.8
20260901021322 77 153 0.0 0.0 0.00 0.01 0.01 47 1007.8
20260901020824 78 132 0.0 0.0 0.00 0.01 0.01 47 1007.8
20260901020352 78 131 0.0 0.0 0.00 0.01 0.01 47 1007.8
20260901015835 78 165 0.0 3.0 0.00 0.01 0.01 47 1007.8
20260901015341 78 171 0.0 4.0 0.00 0.01 0.01 47 1007.8
20260901014850 79 131 1.0 4.0 0.00 0.01 0.01 46 1007.7
20260901014356 79 207 0.0 1.0 0.00 0.01 0.01 46 1007.7
20260901013839 79 141 0.0 5.0 0.00 0.01 0.01 46 1007.6
20260901013339 80 155 1.0 5.0 0.00 0.01 0.01 45 1007.7
20260901012848 80 187 1.0 3.0 0.00 0.01 0.01 44 1007.7
20260901011814 80 218 0.0 3.0 0.00 0.01 0.01 44 1007.8
20260901011321 80 86 1.0 3.0 0.00 0.01 0.01 44 1007.8
20260901010831 80 141 0.0 6.0 0.00 0.01 0.01 44 1007.8
20260901010336 81 199 0.0 6.0 0.00 0.01 0.01 44 1007.8
20260901005818 81 2 0.0 3.0 0.00 0.01 0.01 43 1007.7
20260901005319 81 213 0.0 4.0 0.00 0.01 0.01 42 1007.8
20260901004820 81 147 0.0 4.0 0.00 0.01 0.01 41 1007.8
20260901004312 81 202 0.0 5.0 0.00 0.01 0.01 42 1007.8
20260901003821 81 128 1.0 5.0 0.00 0.01 0.01 41 1007.8
20260901003320 82 245 0.0 4.0 0.00 0.01 0.01 40 1007.8
20260901002823 82 312 1.0 4.0 0.00 0.01 0.01 38 1007.9
20260901002329 82 316 0.0 0.0 0.00 0.01 0.01 37 1007.9
20260901001832 82 314 0.0 1.0 0.00 0.01 0.01 36 1007.9
20260901001338 82 83 0.0 4.0 0.00 0.01 0.01 35 1007.9
20260901000821 82 11 0.0 6.0 0.00 0.01 0.01 36 1007.9
20260901000321 82 196 0.0 1.0 0.00 0.01 0.01 35 1007.9
20260831235830 82 155 0.0 2.0 0.00 0.01 0.01 36 1008.0
20260831235329 82 310 0.0 4.0 0.00 0.01 0.01 36 1007.9
20260831234836 82 124 0.0 4.0 0.00 0.01 0.01 36 1008.0
20260831234342 82 225 0.0 3.0 0.00 0.01 0.01 37 1008.0
20260831233851 82 169 1.0 3.0 0.00 0.01 0.01 36 1008.0
20260831233358 82 308 0.0 3.0 0.00 0.01 0.01 38 1008.0
20260831232839 82 103 0.0 1.0 0.00 0.01 0.01 37 1008.0
20260831232345 82 221 0.0 3.0 0.00 0.01 0.01 37 1008.0
20260831231854 82 123 0.0 2.0 0.00 0.01 0.01 37 1008.0
20260831231334 82 116 0.0 0.0 0.00 0.01 0.01 38 1008.0
20260831230843 82 193 0.0 0.0 0.00 0.01 0.01 38 1008.0
20260831230322 82 10 0.0 4.0 0.00 0.01 0.01 38 1008.0
20260831225832 82 193 1.0 5.0 0.00 0.01 0.01 38 1008.2
20260831225331 82 300 1.0 5.0 0.00 0.01 0.01 37 1008.2
20260831224839 83 308 0.0 0.0 0.00 0.01 0.01 38 1008.3
20260831224320 83 338 0.0 0.0 0.00 0.01 0.01 37 1008.3
20260831223823 83 243 0.0 1.0 0.00 0.01 0.01 37 1008.3
20260831223322 83 350 0.0 5.0 0.00 0.01 0.01 37 1008.4
20260831222830 83 143 0.0 6.0 0.00 0.01 0.01 38 1008.4
20260831222329 83 101 0.0 5.0 0.00 0.01 0.01 38 1008.3
20260831221813 83 120 0.0 3.0 0.00 0.01 0.01 37 1008.4
20260831221320 82 154 1.0 4.0 0.00 0.01 0.01 38 1008.5
20260831220822 83 153 0.0 9.0 0.00 0.01 0.01 38 1008.5
20260831220328 83 223 1.0 9.0 0.00 0.01 0.01 38 1008.5
20260831215831 83 158 0.0 5.0 0.00 0.01 0.01 38 1008.6
20260831215330 83 197 1.0 5.0 0.00 0.01 0.01 39 1008.6
20260831214840 83 122 1.0 5.0 0.00 0.01 0.01 39 1008.6
20260831214319 84 227 1.0 3.0 0.00 0.01 0.01 38 1008.7
20260831213846 83 144 0.0 3.0 0.00 0.01 0.01 39 1008.7
20260831213345 82 179 0.0 3.0 0.00 0.01 0.01 40 1008.8
20260831212842 83 317 0.0 0.0 0.00 0.01 0.01 39 1008.9
20260831212348 83 200 0.0 3.0 0.00 0.01 0.01 40 1008.9
20260831211851 82 224 1.0 3.0 0.00 0.01 0.01 40 1008.9
20260831211338 81 311 0.0 4.0 0.00 0.01 0.01 42 1009.0
20260831210842 80 188 1.0 4.0 0.00 0.01 0.01 41 1009.0
20260831210340 82 155 0.0 1.0 0.00 0.01 0.01 40 1009.1
20260831205828 81 307 0.0 4.0 0.00 0.01 0.01 40 1009.1
20260831205327 80 140 0.0 4.0 0.00 0.01 0.01 43 1009.3
20260831204837 79 310 0.0 1.0 0.00 0.01 0.01 44 1009.2
20260831204316 78 162 0.0 1.0 0.00 0.01 0.01 45 1009.3
20260831203818 78 309 0.0 3.0 0.00 0.01 0.01 43 1009.4
20260831203317 78 338 0.0 4.0 0.00 0.01 0.01 44 1009.4
20260831202826 77 354 1.0 4.0 0.00 0.01 0.01 43 1009.4
20260831202325 78 346 0.0 3.0 0.01 0.01 0.01 44 1009.5
20260831201835 78 349 1.0 3.0 0.01 0.01 0.01 43 1009.6
20260831201334 76 137 1.0 3.0 0.01 0.01 0.01 45 1009.6
20260831200843 77 326 0.0 1.0 0.01 0.01 0.01 45 1009.7
20260831200348 76 328 0.0 3.0 0.01 0.01 0.01 47 1009.7
20260831195858 76 199 0.0 4.0 0.01 0.01 0.01 47 1009.8
20260831195336 76 158 0.0 5.0 0.01 0.01 0.01 46 1009.9
20260831194844 77 149 0.0 1.0 0.01 0.01 0.01 46 1010.0
20260831194342 76 346 0.0 2.0 0.01 0.01 0.01 47 1009.9
20260831193851 75 198 0.0 4.0 0.01 0.01 0.01 49 1010.0
20260831193335 75 115 0.0 3.0 0.01 0.01 0.01 50 1010.0
20260831192817 74 184 0.0 0.0 0.00 0.00 0.00 51 1010.1
20260831192316 73 316 0.0 0.0 0.00 0.00 0.00 51 1010.1
20260831191824 73 359 0.0 8.0 0.00 0.00 0.00 53 1010.2
20260831191323 73 356 1.0 8.0 0.00 0.00 0.00 51 1010.3
20260831190826 74 39 0.0 0.0 0.00 0.00 0.00 53 1010.3
20260831190332 73 133 0.0 0.0 0.00 0.00 0.00 54 1010.4
20260831185814 71 46 0.0 0.0 0.00 0.00 0.00 56 1010.6
20260831185314 71 38 0.0 5.0 0.00 0.00 0.00 57 1010.5
20260831184904 70 319 0.0 7.0 0.00 0.00 0.00 55 1010.6
20260831184325 72 351 1.0 7.0 0.00 0.00 0.00 56 1010.6
20260831183827 71 49 0.0 5.0 0.00 0.00 0.00 57 1010.6
20260831183333 70 358 1.0 5.0 0.00 0.00 0.00 56 1010.6
20260831182813 70 11 0.0 0.0 0.00 0.00 0.00 57 1010.8
20260831182312 70 318 0.0 1.0 0.00 0.00 0.00 57 1010.8
20260831181821 70 335 0.0 4.0 0.00 0.00 0.00 58 1010.9
20260831181322 70 342 0.0 0.0 0.00 0.00 0.00 59 1010.9
20260831180823 69 56 0.0 6.0 0.00 0.00 0.00 61 1010.9
20260831180330 68 195 0.0 6.0 0.00 0.00 0.00 61 1011.0
20260831175832 69 333 0.0 2.0 0.00 0.00 0.00 60 1011.1
20260831175312 69 117 0.0 3.0 0.00 0.00 0.00 60 1011.1
20260831174821 69 106 0.0 1.0 0.00 0.00 0.00 60 1011.2
20260831174321 68 203 0.0 1.0 0.00 0.00 0.00 62 1011.2
20260831173831 68 4 0.0 1.0 0.00 0.00 0.00 62 1011.2
20260831173329 68 27 0.0 1.0 0.00 0.00 0.00 62 1011.2
20260831172831 67 244 0.0 1.0 0.00 0.00 0.00 64 1011.2
20260831172328 67 310 0.0 1.0 0.00 0.00 0.00 64 1011.2
20260831171831 66 344 0.0 6.0 0.00 0.00 0.00 64 1011.3
20260831171337 67 98 0.0 6.0 0.00 0.00 0.00 65 1011.4
20260831170819 66 274 0.0 1.0 0.00 0.00 0.00 67 1011.4
20260831170318 66 345 0.0 1.0 0.00 0.00 0.00 68 1011.4
20260831165820 66 355 0.0 2.0 0.00 0.00 0.00 68 1011.5
20260831165326 65 95 0.0 2.0 0.00 0.00 0.00 70 1011.5
20260831164830 64 309 0.0 1.0 0.00 0.00 0.00 71 1011.6
20260831164344 64 330 0.0 0.0 0.00 0.00 0.00 72 1011.6
20260831163855 64 124 0.0 0.0 0.00 0.00 0.00 73 1011.6
20260831163334 63 345 0.0 0.0 0.00 0.00 0.00 74 1011.6
20260831162843 63 349 0.0 0.0 0.00 0.00 0.00 75 1011.6
20260831162342 62 328 0.0 1.0 0.00 0.00 0.00 75 1011.6
20260831161850 62 320 0.0 3.0 0.00 0.00 0.00 76 1011.7
20260831161336 61 321 0.0 3.0 0.00 0.00 0.00 77 1011.8
20260831160838 61 342 0.0 0.0 0.00 0.00 0.00 78 1011.8
20260831160323 61 332 0.0 2.0 0.00 0.00 0.00 77 1011.8
20260831155826 60 166 0.0 3.0 0.00 0.00 0.00 79 1011.9
20260831155331 60 350 1.0 3.0 0.00 0.00 0.00 80 1011.9
20260831154814 60 338 1.0 3.0 0.00 0.00 0.00 81 1011.9
20260831154313 59 347 0.0 3.0 0.00 0.00 0.00 82 1011.8
20260831153823 59 333 1.0 3.0 0.00 0.00 0.00 82 1011.8
20260831153322 59 340 0.0 4.0 0.00 0.00 0.00 82 1011.8
20260831152825 59 349 1.0 5.0 0.00 0.00 0.00 83 1011.9
20260831152331 58 343 0.0 5.0 0.00 0.00 0.00 83 1011.9
20260831151901 58 354 1.0 5.0 0.00 0.00 0.00 83 1012.0
20260831151336 58 39 0.0 3.0 0.00 0.00 0.00 84 1012.0
20260831150845 58 322 0.0 2.0 0.00 0.00 0.00 85 1012.0
20260831150352 57 352 0.0 2.0 0.00 0.00 0.00 85 1012.1
20260831145834 57 6 0.0 2.0 0.00 0.00 0.00 85 1012.1
20260831145339 57 333 0.0 6.0 0.00 0.00 0.00 86 1012.1
20260831144848 57 352 1.0 6.0 0.00 0.00 0.00 86 1012.1
20260831144343 56 349 0.0 3.0 0.00 0.00 0.00 86 1012.1
20260831143830 56 330 0.0 3.0 0.00 0.00 0.00 87 1012.0
20260831143314 56 317 0.0 1.0 0.00 0.00 0.00 87 1012.0
20260831142816 56 351 0.0 2.0 0.00 0.00 0.00 87 1012.1
20260831142321 56 345 0.0 2.0 0.00 0.00 0.00 87 1012.0
20260831141824 56 328 0.0 0.0 0.00 0.00 0.00 87 1012.0
20260831141338 56 342 0.0 0.0 0.00 0.00 0.00 87 1012.0
20260831140923 56 339 0.0 1.0 0.00 0.00 0.00 87 1012.1
20260831140318 56 326 0.0 0.0 0.00 0.00 0.00 87 1012.1
20260831135819 55 324 0.0 1.0 0.00 0.00 0.00 87 1012.2
20260831135318 56 345 0.0 1.0 0.00 0.00 0.00 87 1012.1
20260831134827 56 334 0.0 1.0 0.00 0.00 0.00 87 1012.1
20260831134312 56 356 0.0 2.0 0.00 0.00 0.00 87 1012.1
20260831133814 56 330 0.0 2.0 0.00 0.00 0.00 87 1012.1
20260831133320 56 15 0.0 2.0 0.00 0.00 0.00 87 1012.1
20260831132823 56 337 0.0 1.0 0.00 0.00 0.00 87 1012.1
20260831132329 56 351 0.0 3.0 0.00 0.00 0.00 87 1012.2
20260831131832 56 330 0.0 3.0 0.00 0.00 0.00 87 1012.2
20260831130827 56 340 0.0 1.0 0.00 0.00 0.00 86 1012.3
20260831130327 56 326 0.0 1.0 0.00 0.00 0.00 86 1012.3
20260831125829 56 340 0.0 0.0 0.00 0.00 0.00 86 1012.4
20260831125334 56 336 0.0 1.0 0.00 0.00 0.00 86 1012.5
20260831124817 56 326 0.0 2.0 0.00 0.00 0.00 86 1012.4
20260831124316 56 316 0.0 2.0 0.00 0.00 0.00 86 1012.4
20260831123826 56 333 0.0 0.0 0.00 0.00 0.00 85 1012.4
20260831123325 56 323 0.0 0.0 0.00 0.00 0.00 85 1012.4
20260831122814 57 340 0.0 1.0 0.00 0.00 0.00 85 1012.5
20260831122339 57 332 0.0 0.0 0.00 0.00 0.00 85 1012.5
20260831121819 57 331 0.0 0.0 0.00 0.00 0.00 85 1012.6
20260831121321 57 309 0.0 0.0 0.00 0.00 0.00 85 1012.5
20260831120829 57 329 0.0 0.0 0.00 0.00 0.00 85 1012.6
20260831120327 57 353 0.0 0.0 0.00 0.00 0.00 85 1012.6
20260831115816 57 340 0.0 0.0 0.00 0.00 0.00 85 1012.7
20260831115314 57 340 0.0 0.0 0.00 0.00 0.00 85 1012.7
20260831114822 57 302 0.0 0.0 0.00 0.00 0.00 84 1012.7
20260831114350 57 302 0.0 0.0 0.00 0.00 0.00 84 1012.8
20260831113840 57 337 0.0 0.0 0.00 0.00 0.00 84 1012.8
20260831113337 57 330 0.0 1.0 0.00 0.00 0.00 84 1012.8
20260831112846 57 335 0.0 3.0 0.00 0.00 0.00 84 1012.8
20260831112352 57 352 0.0 3.0 0.00 0.00 0.00 84 1012.8
20260831111834 57 325 0.0 0.0 0.00 0.00 0.00 84 1012.9
20260831111338 57 332 0.0 3.0 0.00 0.00 0.00 84 1012.9
20260831110848 57 319 0.0 3.0 0.00 0.00 0.00 85 1012.9
20260831110354 57 338 0.0 2.0 0.00 0.00 0.00 85 1013.0
20260831105816 57 32 0.0 0.0 0.00 0.00 0.00 85 1013.0
20260831105322 57 345 0.0 0.0 0.00 0.00 0.00 85 1013.0
20260831104833 57 345 0.0 0.0 0.00 0.00 0.00 84 1013.0
20260831104331 57 345 0.0 0.0 0.00 0.00 0.00 84 1013.0
20260831103820 58 343 0.0 0.0 0.00 0.00 0.00 84 1013.0
20260831103320 58 327 0.0 0.0 0.00 0.00 0.00 84 1013.0
20260831102829 58 318 0.0 0.0 0.00 0.00 0.00 84 1013.1
20260831102327 58 326 0.0 0.0 0.00 0.00 0.00 84 1013.1
20260831101837 58 328 0.0 0.0 0.00 0.00 0.00 84 1013.1
20260831101317 58 328 0.0 0.0 0.00 0.00 0.00 84 1013.2
20260831100826 58 5 0.0 0.0 0.00 0.00 0.00 83 1013.2
20260831100331 58 338 0.0 1.0 0.00 0.00 0.00 83 1013.3
20260831095813 58 316 0.0 1.0 0.00 0.00 0.00 83 1013.3
20260831095318 58 354 0.0 0.0 0.00 0.00 0.00 83 1013.4
20260831094822 58 345 0.0 1.0 0.00 0.00 0.00 83 1013.4
20260831094319 58 348 0.0 0.0 0.00 0.00 0.00 83 1013.5
20260831093827 59 314 0.0 0.0 0.00 0.00 0.00 83 1013.5
20260831093333 59 307 0.0 0.0 0.00 0.00 0.00 83 1013.6
20260831092836 59 349 0.0 2.0 0.00 0.00 0.00 83 1013.6
20260831092342 59 288 0.0 1.0 0.00 0.00 0.00 83 1013.7
20260831091852 59 16 0.0 1.0 0.00 0.00 0.00 82 1013.8
20260831091358 59 335 0.0 3.0 0.00 0.00 0.00 82 1013.8
20260831090840 59 354 0.0 2.0 0.00 0.00 0.00 82 1013.8
20260831090347 59 343 0.0 2.0 0.00 0.00 0.00 83 1013.9
20260831085853 59 312 0.0 1.0 0.00 0.00 0.00 83 1013.9
20260831085333 59 3 0.0 1.0 0.00 0.00 0.00 82 1013.9
20260831084842 59 315 0.0 2.0 0.00 0.00 0.00 82 1014.0
20260831084321 59 327 0.0 2.0 0.00 0.00 0.00 82 1014.0
20260831083830 59 326 0.0 2.0 0.00 0.00 0.00 82 1014.1
20260831083328 59 327 0.0 0.0 0.00 0.00 0.00 82 1014.2
20260831082831 60 340 0.0 2.0 0.00 0.00 0.00 82 1014.2
20260831082338 59 324 0.0 1.0 0.00 0.00 0.00 82 1014.3
20260831081821 59 351 0.0 0.0 0.00 0.00 0.00 81 1014.4
20260831081320 60 352 0.0 0.0 0.00 0.00 0.00 82 1014.4
20260831080831 60 321 0.0 0.0 0.00 0.00 0.00 81 1014.5
20260831080331 60 321 0.0 0.0 0.00 0.00 0.00 80 1014.6
20260831075813 60 321 0.0 0.0 0.00 0.00 0.00 80 1014.6
20260831075318 60 8 0.0 0.0 0.00 0.00 0.00 80 1014.6
20260831074821 60 8 0.0 0.0 0.00 0.00 0.00 79 1014.6
20260831074320 60 329 0.0 0.0 0.00 0.00 0.00 79 1014.6
20260831073829 61 326 0.0 0.0 0.00 0.00 0.00 79 1014.6
20260831073328 61 326 0.0 2.0 0.00 0.00 0.00 79 1014.6
20260831072838 61 322 0.0 2.0 0.00 0.00 0.00 79 1014.7